Regional Weather Roundup
Issued by NWS Wakefield, VA

Home | Current Version | Previous Version | Graphics & Text | Print | Product List | Glossary On
Versions: 1 2 3 4 5 6 7 8 9 10 11 12 13 14 15 16 17 18 19 20 21 22 23 24 25 26 27 28 29 30 31 32 33 34 35 36 37 38 39 40 41 42 43 44 45 46 47 48 49 50
506
ASUS41 KAKQ 161115
RWRAKQ

REGIONAL WEATHER ROUNDUP
NATIONAL WEATHER SERVICE WAKEFIELD VA
700 AM EDT MON OCT 16 2017

Note: "fair" indicates few or no clouds below 12,000 feet with no
significant weather and/or obstructions to visibility. * = Denotes
station may not report precipitation (e.g., rain,snow,etc.),
thunder or fog.

VAZ042-051-052>054-056-161200-
NORTHERN VIRGINIA

CITY           SKY/WX    TMP DP  RH WIND       PRES   REMARKS
WASH NATIONAL  LGT RAIN  63  55  75 NW12G18   30.01R
DULLES         CLOUDY    59  55  87 NW9       30.00R
FORT BELVOIR   LGT RAIN  61  57  88 CALM      29.99R
QUANTICO       LGT RAIN  61  58  90 N3        30.01R
FREDERICKSBRG* RAIN      59  59 100 CALM      30.00S
STAFFORD*      LGT RAIN  58  58  99 NW6       30.05R
WARRENTON      CLOUDY    59  51  76 NW5       30.01R
CULPEPER*      MOCLDY    59  53  80 N3        30.01S
MANASSAS*      CLOUDY    59  53  80 NW8       30.00R
LEESBURG*      CLOUDY    59  55  88 NW8       30.01S
WINCHESTER     CLOUDY    55  46  71 NW9       30.03F
FRONT ROYAL*   CLOUDY    57  46  67 NW7       30.03S
LURAY*         PTSUNNY   59  45  58 N8        30.05R
$$

VAZ048-049-060>072-079>083-161200-
CENTRAL AND SOUTH CENTRAL VIRGINIA

CITY           SKY/WX    TMP DP  RH WIND       PRES   REMARKS
RICHMOND       LGT RAIN  59  56  89 N17G26    30.02R FOG
CHESTERFIELD*  NOT AVBL
PETERSBURG*    LGT RAIN  65  65 100 N10G16    29.98R
HANOVER        LGT RAIN  58  57  97 VRB6      30.02R
TAPPAHANNOCK*  RAIN      63  59  89 NE5       30.01R
QUINTON*       CLOUDY    61  58  92 NW6       29.99R
CHARLOTTSVILLE LGT RAIN  60  56  86 N3        30.01R
GORDONSVILLE*  CLOUDY    60  57  89 N3        30.00R
ORANGE*        CLOUDY    57  54  88 CALM      30.01R
LOUISA*        CLOUDY    59  55  88 N3        30.01R
BUMPASS*       CLOUDY    58  58 100 CALM      30.02R
FARMVILLE*     RAIN      64  64 100 N5        29.99S
CREWE*         CLOUDY    64  64 100 N7        29.98R
FORT PICKETT*  CLOUDY    65  65 100 N10       29.98R
CHASE CITY*    CLOUDY    65  65 100 NW3       29.99S
CLARKSVILLE*   CLOUDY    68  64  88 NW6       29.99R
SOUTH HILL*    MOCLDY    68  67  96 NW5       30.03R
LAWRENCEVILLE* CLOUDY    67  66  96 NW5       29.96S
EMPORIA*       CLOUDY    68  64  88 SW3       29.97S
$$

VAZ088>098-161200-
SOUTHEAST VIRGINIA

CITY           SKY/WX    TMP DP  RH WIND       PRES   REMARKS
NORFOLK        CLOUDY    70  66  87 SW8       29.94R
VIRGINIA BEACH MOCLDY    68  65  90 SW8       29.94R
NORFOLK NAVAL  CLOUDY    70  65  84 SW6       29.96R
WEST POINT*    CLOUDY    63  60  90 N3        29.99R
SALUDA*        CLOUDY    63  58  84 N13G20    29.97R
NEWPORT NEWS   CLOUDY    70  65  84 W5        29.94R
LANGLEY AFB    CLOUDY    70  66  88 W8        29.94R
FORT EUSTIS    DRIZZLE   70  64  83 N18       29.94R
WILLIAMSBURG*  PTCLDY    66  64  94 N10G20    29.98R
HR EXEC AP*    NOT AVBL
FRANKLIN*      CLOUDY    68  65  89 SW3       29.95S
US460-WAKEFLD  CLOUDY    68  66  93 W5        29.94S
$$

VAZ020-022-025-037-045-161200-
WEST CENTRAL AND SOUTHWEST VIRGINIA

CITY           SKY/WX    TMP DP  RH WIND       PRES   REMARKS
STAUNTON*      CLOUDY    57  49  74 N5        30.05S
WAYNESBORO*    PTSUNNY   56  50  81 NW8       30.04R
HOT SPRINGS VA MOCLDY    45  42  90 NW20G30   30.06S
LYNCHBURG      LGT RAIN  58  57  97 NW5       30.04R
DANVILLE       LGT RAIN  59  58  96 N14G24    30.03R
SOUTH BOSTON*  CLOUDY    64  61  91 NW9       30.02R
MARTINSVILLE   LGT RAIN  57  54  90 N8        30.08R
ROANOKE        CLOUDY    57  48  72 NW10      30.09R
BLACKSBURG     CLOUDY    52  48  87 NW6       30.13R
DUBLIN*        CLOUDY    53  48  84 NW7       30.13R
MARION*        CLOUDY    49  43  80 NW9G21    30.16S
HILLSVILLE*    CLOUDY    49  45  84 N14G20    30.09S
RICHLANDS*     CLOUDY    46  44  93 NW7       30.18R
WISE*          CLOUDY    45  45 100 NW6       30.20S
ABINGDON*      CLOUDY    51  46  80 N6        30.16R
$$

MDZ021>025-VAZ099-100-161200-
SOUTHERN MARYLAND AND THE DELMARVA PENINSULA

CITY           SKY/WX    TMP DP  RH WIND       PRES   REMARKS
PATUXENT RIVER CLOUDY    63  59  87 NW13      29.98R
BAY BRIDGE APT CLOUDY    61  59  94 CALM      29.97S
LEONARDTOWN    NOT AVBL
DOVER          LGT RAIN  59  57  94 SW5       29.95F
GEORGETOWN     CLOUDY    61  55  81 NW5       29.99R
EASTON         RAIN      59  57  94 CALM      30.01R
CAMBRIDGE      CLOUDY    61  59  94 N6        29.98S
SALISBURY      CLOUDY    61  56  83 N13       29.97S
OCEAN CITY     CLOUDY    64  57  78 N16G23    29.96R
WALLOPS ISLAND CLOUDY    66  61  84 N15G28    29.96R
ACCOMACK*      CLOUDY    67  61  81 N10G20    29.96R
$$

NCZ012>017-030>032-161200-
NORTH CENTRAL AND EASTERN NORTH CAROLINA

CITY           SKY/WX    TMP DP  RH WIND       PRES   REMARKS
ROANOKE RAPIDS PTSUNNY   66  64  94 SW5       29.96R
RALEIGH        MOCLDY    65  65 100 SW6       29.98S
ELIZABETH CITY CLEAR     68  68 100 S8        29.96S
AHOSKIE*       CLOUDY    67  67  99 CALM      29.96R
EDENTON*       CLEAR     69  67  93 CALM      29.98R
CURRITUCK*     CLEAR     67  65  93 SW5       29.96S
KILL DEVIL HLS CLOUDY   N/A N/A N/A CALM      29.96S
MANTEO         CLOUDY   N/A N/A N/A W9        29.98S
CAPE HATTERAS  PTCLDY    76  75  97 W7        29.98R
TARBORO*       NOT AVBL
GOLDSBORO      CLEAR     66  64  94 SW3       29.97S
WASHINGTON     PTCLDY    66  65  97 SW3       29.99R
GREENVILLE     CLEAR     64  64 100 CALM      29.99S FOG
NEW BERN       CLOUDY    68  68 100 W3        30.00R FOG
WILMINGTON     CLEAR     69  68  96 CALM      30.00R
$$

VAZ048-161200-
ELSEWHERE

CITY           SKY/WX    TMP DP  RH WIND       PRES   REMARKS
HARRISBURG PA  CLOUDY    58  45  62 NW15      29.99R
BALTIMORE      CLOUDY    60  59  96 W5        29.98R
ANNAPOLIS      CLOUDY    63  62  97 W5        29.97R
ANDREWS AFB    LGT RAIN  61  59  94 W5        29.99R
PHILADELPHIA   CLOUDY    62  57  83 NW7       29.95R
HENDERSON NC   CLOUDY    67  63  87 NW7       29.98R
GREENSBORO     LGT RAIN  63  61  93 N8        30.02R
ROCKY MOUNT    PTCLDY    67  67 100 SW6       29.97S
$$

VAZ100-161200-
MARINE

STATION/POSITION TIME  TEMP    WIND        PRES    WAVE   SWELL
                       AIR SEA DIR/SP/G            HT/PER HT/PER
                 (UTC) (F)     (DEG/KT/KT) (MB)    (FT/S) (FT/S)
BRANDYWINE LGT   1042   62     340/ 22/ 24 1014.6R
CAPE MAY NJ      1042   63 69  340/  7/ 17 1014.1R
LEWES DE         1042   63 69  340/ 21/ 27 1014.6R
15NM E FENWICK I 1050   67 69  320/ 21/ 27 1013.8R   4/ 4   2/ 8
OCEAN-CITY-INLET 1042   66 70  350/ 17/ 22 1014.7R
WACHAPREAGUE VA  1042   66 70  330/  4/ 11 1014.1R
THOMAS POINT MD  1100   62 70  290/  7/  8   N/A
GOOSES REEF MD   1050   62     360/ 10/ 14 1010.6F
COVE POINT MD    1042   62     360/ 22/ 26 1015.7R
SOLOMONS ISLAND  1042   62 72  340/  9/ 13 1014.9R
BISHOPS HEAD MD  1042   62 70  360/ 12/ 16 1015.0S
PINEY POINT MD   1036          360/ 11/ 13   N/A
POTOMAC MD       1050   64     360/ 10/ 14 1014.3R
CAMBRIDGE MD     1042   61 71              1015.8F
LEWISETTA VA     1042   64 70   10/  8/ 13 1015.1R
RAPPAHANNOCK LGT 1036          330/ 25/ 29 1014.8R
STINGRAY PT      1050   66      10/ 19/ 25 1014.2R
YORK RVR RNG VA  1042   71     280/  8/ 10 1014.4R
YORKTOWN VA      1036   70 73  310/  5/  8 1013.5R
JAMESTOWN VA     1050           20/ 14/ 21   N/A
DOMINION TERM VA 1036   70     240/ 11/ 13 1013.7R
KIPTOPEKE VA     1036      72  260/ 14/ 17   N/A
CAPE HENRY VA    1036   71     220/ 10/ 14   N/A
WILLOUBY STN VA  1036   71     240/ 10/ 12 1013.7R
S CRANEY ISL VA  1036   70     210/  7/  9 1013.5R
CAPE HENRY BUOY  1030      72                N/A     3/ 8
1ST LANDING BUOY 1050   71                 1013.6R
CAPE CHARLES BUO 1051      72                N/A     3/ 8
64NM E OF VA BCH 1050   71 70  230/ 12/ 14 1014.6R   4/ 8   2/ 8
DUCK PIER NC     1036   72 72  220/ 11/ 14 1014.1S
44100 DUCK FRF   1035      72                N/A     3/ 8
44056 DUCK FRF   1030      72                N/A     2/ 8
OREGON INLET NC  1036   72 75  240/ 10/ 12 1014.9R
HATTERAS NC      1036   76 77  270/ 10/ 12 1015.1S
DIAMOND SHLS NC  1050   78 77  240/  8/ 10 1014.9R   3/ 4   3/ 9
CAPE LOOKOUT NC  1100   76     270/  6/  7 1014.8F
$$




USA.gov is the U.S. government's official web portal to all federal, state and local government web resources and services.